Location: Alma
(38.7220°N, 88.9090°W)
Time: 12:30:19
(UTC-06:00)

Vanguard 2 Rocket - Pass Details

Date: 19 November 2019
Orbit: 554 x 3326 km, 32.9° (Epoch: 11 December)

Event Time Altitude Azimuth Distance (km) Brightness Sun altitude
Rises 05:07:59 0° 269° (W) 3,435 - -18.3°
Reaches altitude 10° 05:10:13 10° 261° (W) 2,731 - -17.9°
Exits shadow 05:12:01 20° 250° (WSW) 2,268 8.4 -17.5°
Maximum altitude 05:16:21 39° 194° (SSW) 1,949 8.5 -16.7°
Drops below altitude 10° 05:26:35 10° 132° (SE) 4,550 11.4 -14.7°
Sets 05:31:31 0° 126° (SE) 6,028 12.5 -13.8°
